TimeCST,TemperatureF,Dew PointF,Humidity,Sea Level PressureIn,VisibilityMPH,Wind Direction,Wind SpeedMPH,Gust SpeedMPH,PrecipitationIn,Events,Conditions,WindDirDegrees,DateUTC
12:15 AM,48.2,46.4,93,30.03,3.0,NNE,11.5,-,0.03,Rain,Rain,20,2013-01-09 06:15:00
12:35 AM,48.2,46.4,93,30.03,3.0,NNE,8.1,-,0.10,Rain,Light Rain,20,2013-01-09 06:35:00
12:55 AM,48.2,46.4,93,30.05,6.0,NNE,5.8,-,0.13,Rain,Light Rain,30,2013-01-09 06:55:00
1:35 AM,48.2,46.4,93,30.05,5.0,North,4.6,-,0.01,Rain,Light Rain,350,2013-01-09 07:35:00
1:55 AM,48.2,48.2,100,30.03,2.5,North,-9999.0,-,0.05,Rain,Light Rain,0,2013-01-09 07:55:00
2:15 AM,48.2,48.2,100,30.04,4.0,North,-9999.0,-,N/A,Rain,Light Rain,0,2013-01-09 08:15:00
2:35 AM,48.2,48.2,100,30.05,3.0,North,-9999.0,-,0.04,Rain,Light Rain,0,2013-01-09 08:35:00
2:55 AM,50.0,50.0,100,30.05,5.0,North,-9999.0,-,0.07,Rain,Light Rain,0,2013-01-09 08:55:00
3:15 AM,48.2,48.2,100,30.06,4.0,NE,6.9,-,0.01,Rain,Light Rain,40,2013-01-09 09:15:00
3:35 AM,48.2,48.2,100,30.07,4.0,North,4.6,-,0.03,Rain,Light Rain,10,2013-01-09 09:35:00
3:55 AM,50.0,50.0,100,30.06,6.0,North,8.1,-,0.04,Rain,Light Rain,10,2013-01-09 09:55:00
4:15 AM,50.0,50.0,100,30.04,4.0,NE,8.1,-,0.01,Rain,Light Rain,40,2013-01-09 10:15:00
4:35 AM,50.0,50.0,100,30.03,8.0,NE,12.7,16.1,0.02,Rain,Light Rain,40,2013-01-09 10:35:00
4:55 AM,50.0,50.0,100,30.03,10.0,NE,11.5,16.1,0.02,Rain,Light Rain,40,2013-01-09 10:55:00
5:15 AM,51.8,50.0,94,30.02,10.0,NE,12.7,19.6,N/A,,Mostly Cloudy,40,2013-01-09 11:15:00
5:55 AM,53.6,51.8,94,30.02,10.0,NE,12.7,19.6,N/A,Rain,Light Rain,40,2013-01-09 11:55:00
6:15 AM,53.6,51.8,94,30.02,7.0,NNE,15.0,20.7,N/A,Rain,Light Rain,30,2013-01-09 12:15:00
6:35 AM,53.6,50.0,88,30.04,10.0,NNE,13.8,21.9,0.01,Rain,Light Rain,20,2013-01-09 12:35:00
6:55 AM,50.0,50.0,100,30.04,8.0,North,11.5,18.4,0.01,Rain,Light Rain,360,2013-01-09 12:55:00
7:15 AM,50.0,48.2,94,30.06,5.0,North,15.0,21.9,0.02,Rain,Light Rain,360,2013-01-09 13:15:00
7:35 AM,48.2,48.2,100,30.06,5.0,North,15.0,20.7,0.04,Rain,Rain,360,2013-01-09 13:35:00
7:55 AM,48.2,48.2,100,30.07,5.0,North,11.5,19.6,0.07,Rain,Light Rain,360,2013-01-09 13:55:00
8:15 AM,48.2,48.2,100,30.08,5.0,North,11.5,17.3,N/A,Rain,Light Rain,350,2013-01-09 14:15:00
8:35 AM,48.2,48.2,100,30.09,4.0,North,9.2,-,0.02,Rain,Light Rain,350,2013-01-09 14:35:00
8:55 AM,50.0,48.2,94,30.09,6.0,North,9.2,-,0.04,Rain,Light Rain,360,2013-01-09 14:55:00
9:15 AM,50.0,48.2,94,30.10,7.0,North,5.8,-,N/A,Rain,Light Rain,10,2013-01-09 15:15:00
9:35 AM,50.0,48.2,94,30.11,8.0,NNE,11.5,16.1,N/A,Rain,Light Rain,20,2013-01-09 15:35:00
9:55 AM,50.0,48.2,94,30.10,1.8,North,10.4,17.3,N/A,,Overcast,360,2013-01-09 15:55:00
10:15 AM,50.0,48.2,94,30.09,1.5,North,12.7,-,N/A,Rain,Light Rain,360,2013-01-09 16:15:00
10:35 AM,50.0,50.0,100,30.07,1.0,North,15.0,20.7,N/A,Rain,Light Rain,350,2013-01-09 16:35:00
10:55 AM,50.0,48.2,94,30.06,1.8,North,15.0,20.7,N/A,Rain,Light Rain,360,2013-01-09 16:55:00
11:15 AM,50.0,48.2,94,30.05,0.8,North,13.8,-,N/A,Rain,Rain,360,2013-01-09 17:15:00
11:35 AM,50.0,48.2,94,30.02,1.0,North,16.1,24.2,0.01,Rain,Light Rain,350,2013-01-09 17:35:00
11:55 AM,50.0,48.2,94,30.01,2.5,North,11.5,25.3,0.02,Rain,Light Rain,360,2013-01-09 17:55:00
12:15 PM,50.0,48.2,94,30.01,1.8,North,11.5,18.4,N/A,Rain,Light Rain,360,2013-01-09 18:15:00
12:35 PM,50.0,48.2,94,30.00,2.5,North,9.2,-,N/A,Rain,Light Rain,360,2013-01-09 18:35:00
12:55 PM,50.0,50.0,100,29.98,0.8,North,9.2,-,0.12,Rain,Rain,360,2013-01-09 18:55:00
1:15 PM,50.0,50.0,100,29.97,0.8,North,8.1,-,0.05,Rain,Light Rain,360,2013-01-09 19:15:00
1:35 PM,50.0,50.0,100,29.98,0.8,Calm,Calm,-,0.09,Rain,Light Rain,0,2013-01-09 19:35:00
1:55 PM,50.0,50.0,100,29.99,0.8,SW,3.5,-,0.14,Rain,Rain,230,2013-01-09 19:55:00
2:15 PM,50.0,50.0,100,29.99,0.8,WSW,4.6,-,0.02,Rain,Rain,250,2013-01-09 20:15:00
2:35 PM,50.0,50.0,100,29.97,0.8,NNW,6.9,-,0.06,Rain,Rain,340,2013-01-09 20:35:00
2:55 PM,50.0,50.0,100,29.90,1.2,North,16.1,20.7,0.08,,Scattered Clouds,360,2013-01-09 20:55:00
3:15 PM,50.0,50.0,100,29.91,10.0,North,12.7,21.9,N/A,Rain,Light Rain,360,2013-01-09 21:15:00
3:35 PM,51.8,51.8,100,29.92,10.0,North,11.5,-,N/A,Rain,Light Rain,360,2013-01-09 21:35:00
3:55 PM,51.8,51.8,100,29.93,3.0,North,6.9,-,N/A,,Mostly Cloudy,10,2013-01-09 21:55:00
4:15 PM,51.8,51.8,100,29.93,0.8,North,6.9,-,N/A,Rain,Light Rain,360,2013-01-09 22:15:00
4:35 PM,51.8,51.8,100,29.92,1.0,North,6.9,-,N/A,,Mostly Cloudy,350,2013-01-09 22:35:00
4:55 PM,53.6,53.6,100,29.94,2.0,North,4.6,-,N/A,,Mostly Cloudy,360,2013-01-09 22:55:00
5:35 PM,53.6,53.6,100,29.93,1.2,NNE,4.6,-,0.01,Rain,Light Rain,20,2013-01-09 23:35:00
5:55 PM,51.8,51.8,100,29.95,0.8,SSW,8.1,-,0.02,Rain,Light Rain,200,2013-01-09 23:55:00
6:15 PM,51.8,51.8,100,29.95,1.5,SSE,3.5,-,N/A,Rain,Light Rain,150,2013-01-10 00:15:00
6:35 PM,51.8,51.8,100,29.96,3.0,Calm,Calm,-,N/A,,Overcast,0,2013-01-10 00:35:00
6:55 PM,51.8,51.8,100,29.97,2.0,South,5.8,-,N/A,,Overcast,190,2013-01-10 00:55:00
7:55 PM,51.8,51.8,100,29.99,9.0,Calm,Calm,-,N/A,,Overcast,0,2013-01-10 01:55:00
8:15 PM,51.8,51.8,100,29.99,3.0,Calm,Calm,-,N/A,,Overcast,0,2013-01-10 02:15:00
9:35 PM,50.0,50.0,100,29.98,5.0,Calm,Calm,-,N/A,,Overcast,0,2013-01-10 03:35:00
10:15 PM,50.0,50.0,100,29.99,7.0,SW,4.6,-,N/A,,Overcast,220,2013-01-10 04:15:00
10:35 PM,50.0,50.0,100,29.99,5.0,SSW,3.5,-,N/A,,Overcast,210,2013-01-10 04:35:00
10:55 PM,50.0,50.0,100,30.00,1.8,SSW,5.8,-,N/A,,Overcast,200,2013-01-10 04:55:00
11:15 PM,50.0,50.0,100,29.99,1.0,SSE,3.5,-,N/A,Rain,Light Rain,160,2013-01-10 05:15:00
11:35 PM,50.0,50.0,100,29.99,1.2,ESE,3.5,-,N/A,,Overcast,110,2013-01-10 05:35:00
11:55 PM,50.0,50.0,100,30.01,0.8,SW,5.8,-,N/A,Thunderstorm,Overcast,230,2013-01-10 05:55:00